Location: Observatorio Las Palmas
(29.0667°N, 110.9333°W)
Time: 00:37:43
(UTC-07:00)

Skynet4D Del rocket - Visible Passes

Search period start: 28 February 2017 00:00
Search period end: 10 March 2017 00:00
Orbit: 763 x 1291 km, 26.9° (Epoch: 27 February)

Date Brightness Start Highest point End Pass type
(mag) Time Alt. Az. Time Alt. Az. Time Alt. Az.
28 Feb 3.8 18:58:39 10° WSW 19:04:09 61° S 19:08:41 14° E visible
28 Feb 4.8 20:51:09 10° W 20:54:19 36° WSW 20:54:19 36° WSW visible
01 Mar 3.5 19:39:58 10° W 19:45:28 71° S 19:47:37 36° ESE visible
01 Mar 6.2 21:32:33 10° W 21:33:15 14° W 21:33:15 14° W visible
02 Mar 3.6 20:21:23 10° W 20:26:32 65° SSW 20:26:32 65° SSW visible
03 Mar 3.7 19:10:04 10° W 19:15:46 72° S 19:19:51 17° E visible
03 Mar 5.3 21:02:51 10° W 21:05:29 27° WSW 21:05:29 27° WSW visible
04 Mar 3.7 19:51:32 10° W 19:57:04 62° S 19:58:48 41° SE visible
05 Mar 4.3 20:33:04 10° W 20:37:46 42° SSW 20:37:46 42° SSW visible
06 Mar 4.0 19:21:36 10° W 19:27:20 58° SSW 19:31:07 19° ESE visible
06 Mar 5.8 21:14:58 10° WSW 21:16:46 18° WSW 21:16:46 18° WSW visible
07 Mar 4.5 20:03:15 10° W 20:08:31 38° SSW 20:10:10 31° SSE visible
08 Mar 4.3 18:51:35 10° W 18:57:33 53° SSW 19:02:54 10° ESE visible
08 Mar 5.4 20:45:23 10° WSW 20:49:14 21° SSW 20:49:14 21° SSW visible
09 Mar 4.9 19:33:22 10° W 19:38:41 33° SSW 19:42:42 14° SE visible
